This is the latest recevied weather packets stored in our database for station/object EA5AFP-10. If no packets are shown the sender has not sent any weather packets the latest 1 day(s).
| Time | Temp. | Humidity | Pressure | Rain* | Wind** | Luminosity | Snow |
|---|---|---|---|---|---|---|---|
| 1778017985 | 17.78° C | 8% | - | 0 mm | 2.24 m/s, 67° | - | - |
| 1778017754 | 17.78° C | 8% | - | 0 mm | 1.79 m/s, 90° | - | - |
| 1778017503 | 18.33° C | 8% | - | 0 mm | 2.24 m/s, 67° | - | - |
| 1778017451 | 18.33° C | 8% | - | 0 mm | 2.24 m/s, 67° | - | - |
| 1778017230 | 18.33° C | 8% | - | 0 mm | 2.24 m/s, 67° | - | - |
| 1778016943 | 18.89° C | 8% | - | 0 mm | 1.79 m/s, 67° | - | - |
| 1778016689 | 18.89° C | 8% | - | 0 mm | 2.24 m/s, 22° | - | - |
| 1778016439 | 18.89° C | 7% | - | 0 mm | 2.24 m/s, 315° | - | - |
| 1778016438 | 18.89° C | 7% | - | 0 mm | 2.24 m/s, 315° | - | - |
| 1778016436 | 18.89° C | 7% | - | 0 mm | 2.24 m/s, 315° | - | - |
| 1778016260 | 18.89° C | 7% | - | 0 mm | 1.79 m/s, 337° | - | - |
| 1778016228 | 18.89° C | 7% | - | 0 mm | 1.79 m/s, 337° | - | - |
| 1778015973 | 17.78° C | 7% | - | 0 mm | 1.79 m/s, 337° | - | - |
| 1778015721 | 17.78° C | 6% | - | 0 mm | 2.24 m/s, 292° | - | - |
| 1778015435 | 18.33° C | 6% | - | 0 mm | 2.24 m/s, 315° | - | - |
| 1778015215 | 18.33° C | 6% | - | 0 mm | 2.24 m/s, 292° | - | - |
| 1778015179 | 18.33° C | 6% | - | 0 mm | 2.24 m/s, 292° | - | - |
| 1778014914 | 18.89° C | 6% | - | 0 mm | 1.34 m/s, 315° | - | - |
| 1778014622 | 19.44° C | 6% | - | 0 mm | 1.34 m/s, 292° | - | - |
| 1778014619 | 19.44° C | 6% | - | 0 mm | 1.34 m/s, 292° | - | - |
| 1778014488 | 20° C | 5% | - | 0 mm | 1.79 m/s, 292° | - | - |
| 1778014455 | 19.44° C | 5% | - | 0 mm | 2.24 m/s, 292° | - | - |
| 1778014213 | 18.89° C | 6% | - | 0 mm | 1.34 m/s, 292° | - | - |
| 1778013936 | 19.44° C | 6% | - | 0 mm | 0.89 m/s, 292° | - | - |
| 1778013649 | 18.89° C | 6% | - | 0 mm | 0.89 m/s, 292° | - | - |
* Rain latest hour (hover to see other rain measurements)
** Current wind speed in m/s (hover to see current wind gust speed)